Flag for United Kingdom Weather past 2 weeks in Hinckley, England, United Kingdom

Now
59 °F

Cool.


Feels Like: 58 °F
Forecast: 49 / 63 °F
Wind: 9 mph from Southwest

Location: Church Lawford

Current Time: Aug 21, 2014 at 7:16:44 PM

Latest Report: Aug 21, 2014 at 6:00 PM


Visibility: 25 mi

Pressure: 29.86 "Hg

Humidity: 63%

Dew point: 47 °F

Location of HinckleyLocation

Historic Weather in Hinckley — Graph

°F

Hinckley temperature yesterday

Maximum temperature yesterday: 62 °F (at 5:00 PM)
Minimum temperature yesterday: 44 °F (at 5:00 AM)
Average temperature yesterday: 53 °F

Past Weeks' High & Low Weather Summary

 TemperatureHumidityPressure
High75 °F (Aug 8, 3:00 PM)100% (Aug 10, 12:00 PM)30.16 "Hg (Aug 10, 12:00 PM)
Low44 °F (Aug 20, 5:00 AM)41% (Aug 17, 4:00 PM)29.26 "Hg (Aug 10, 12:00 PM)
Average59 °F75%29.82 "Hg
* Reported Aug 6 6:00 PM — Aug 21 6:00 PM, Hinckley, Weather by CustomWeather, © 2014

Note: Actual official high and low records may vary slightly from our data, if they occured in-between our weather recording intervals... More about our weather records

Advertising

Hinckley weather history for previous 24 hours

 ConditionsComfort  
Time TempWeatherWind HumidityBarometerVisibility
6:00 PM
Aug 21
59 °FCool.9 mph63%29.86 "Hg25 mi
5:00 PM59 °FCool.6 mph65%29.88 "Hg22 mi
4:00 PM59 °FCool.10 mph61%29.89 "Hg22 mi
3:00 PM60 °FRefreshingly cool.8 mph57%29.90 "Hg22 mi
2:00 PM62 °FRefreshingly cool.10 mph53%29.91 "Hg25 mi
1:00 PM62 °FRefreshingly cool.9 mph57%29.92 "Hg22 mi
12:00 PM62 °FRefreshingly cool.9 mph52%29.93 "Hg19 mi
11:00 AM60 °FCool.9 mph63%29.96 "Hg19 mi
10:00 AM58 °FCool.8 mph67%29.97 "Hg19 mi
9:00 AM53 °FCool.6 mph78%29.98 "Hg22 mi
8:00 AM49 °FCool.3 mph88%29.98 "Hg17 mi
7:00 AM44 °FQuite cool.3 mph96%30.00 "Hg17 mi
6:00 AM44 °FQuite cool.2 mph96%30.00 "Hg16 mi
5:00 AM45 °FQuite cool.3 mph95%30.02 "Hg12 mi
4:00 AM45 °FCool.3 mph96%30.03 "Hg11 mi
3:00 AM46 °FCool.3 mph95%30.04 "Hg16 mi
2:00 AM47 °FCool.3 mph92%30.04 "Hg16 mi
1:00 AM48 °FCool.5 mph87%30.05 "Hg11 mi
12:00 AM49 °FCool.5 mph87%30.06 "Hg17 mi
11:00 PM
Aug 20
51 °FCool.6 mph82%30.05 "Hg22 mi
10:00 PM52 °FCool.7 mph78%30.05 "Hg25 mi
9:00 PM53 °FCool.6 mph72%30.05 "Hg31 mi
8:00 PM57 °FRefreshingly cool.7 mph59%30.03 "Hg22 mi
7:00 PM59 °FRefreshingly cool.9 mph54%30.02 "Hg31 mi
Weather by CustomWeather, © 2014

See weather overviewHow to use our weather pages